Terminal Aerodrome Forecast
Issued by NWS Sioux Falls, SD

Home | Current Version | Previous Version | Graphics & Text | Print | Product List | Glossary On
Versions: 1 2 3 4 5 6 7 8 9 10 11 12 13 14
000
FTUS43 KFSD 311720
TAFHON
TAF
KHON 311720Z 3118/0118 28009KT P6SM SCT150
     FM312000 31012KT P6SM SCT110
     FM010100 VRB05KT P6SM SCT100 BKN150
     FM011500 11009KT P6SM SCT150=

USA.gov is the U.S. government's official web portal to all federal, state and local government web resources and services.